Weather in Texas City

United States     29°23′02″N   94°54′08″W
temp.,
°C
wind,
m/s
gust,
m/s
humid.,
%
clouds,
%
prec.,
mm/h
press.,
hPa
HPBL,
m
7 may, fri
fri701:00+22e22610 0.0 1020121
04:00+20ne23684 0.0 1020102
07:00+20ne23711 0.0 1021112
10:00+23ene455726 0.0 1022526
13:00+25ese454889 0.0 1021820
16:00+26se554882 0.0 1020849
19:00+24sse56600 0.0 1018529
22:00+22sse59680 0.0 1018435
8 may, sat
sat801:00+22sse611700 0.0 1017500
04:00+21s510784 0.0 1017417
07:00+21sse51078100 0.0 1017438
10:00+25sse8106478 0.0 1017991
13:00+27sse911625 0.0 10161192
16:00+26sse9116551 0.0 10141193
19:00+25sse8127510 0.0 1013969
22:00+24sse813807 0.0 1013900
9 may, sun
sun901:00+23sse91383100 0.0 1012869
04:00+23s8138749 0.0 1011874
07:00+23s7128949 0.1 1012813
10:00+26s8127982 0.4 1012996
13:00+28s8117163 0.9 10121205
16:00+28s8117144 0.3 10101176
19:00+26s6108633 0.6 1010814
22:00+24s6129538 0.1 1010652
10 may, mon
mon1001:00+25s6129587 0.1 1010649
04:00+24s6129557 0.0 1010625
07:00+24s379563 0.0 1011359
10:00+27s57746 0.0 1013817
13:00+29sse566547 0.0 10131129
16:00+29se5564100 0.0 1012961
19:00+27se46785 0.0 1012542
22:00+25ese4791100 0.0 1013349
11 may, tue
tue1101:00+25se4793100 0.0 1013326
04:00+24se2389100 4.5 101461
07:00+24ene4690100 6.9 1015195
10:00+24ene5794100 18.4 1017398
13:00+26e6981100 18.6 1016692
16:00+26e687997 0.3 1016805
19:00+25e8108334 0.8 1015738
22:00+23ene7128888 0.1 1017555